Starlink 33566

operational
NORAD ID: 62100 Int'l Des: 2024-220 Owner: SPXS Country: US Constellation: starlink
LEOCIRCULAR

About Starlink 33566

Description loading...

Live Position

Loading 3D Globe...

Upcoming Passes

Altitude History

Altitude vs Time

uPlot chart will show altitude changes over time

Two-Line Element Set

1 62100U 24220N 25350.27454228 .00019912 00000-0 73046-3 0 9993
2 62100 43.0012 301.9226 0001394 279.8294 80.2400 15.27610824 60604
Epoch: Dec 16, 2025 • Age: 14 hours

Current Status

Altitude 482.0 km
Velocity 7.63 km/s
Sub-Earth Point 13.90°N, 83.89°W
Launch Date Nov 25, 2024
Age 1 years
Type internet

Technical Details

Classification Payload
Mass 530.00 kg
Dry Mass 500.00 kg
Total Mass 530.00 kg
Length 0.30 m
Diameter 4.10 m
Span 29.00 m
Shape Box + pan
Manufacturer SPXS
Bus Type Starlink V2MO
Phase Status In Orbit
Owner/State SPXS/US

Large Constellations

Loading constellations...